TimeCDT,TemperatureF,Dew PointF,Humidity,Sea Level PressureIn,VisibilityMPH,Wind Direction,Wind SpeedMPH,Gust SpeedMPH,PrecipitationIn,Events,Conditions,WindDirDegrees,DateUTC
12:54 AM,41.0,35.1,79,30.02,10.0,North,12.7,-,N/A,,Overcast,350,2013-10-23 05:54:00
1:54 AM,41.0,36.0,82,30.03,10.0,NNW,12.7,-,N/A,,Overcast,330,2013-10-23 06:54:00
2:54 AM,41.0,36.0,82,30.03,10.0,NNW,8.1,-,N/A,,Overcast,330,2013-10-23 07:54:00
3:10 AM,41.0,35.6,81,30.02,10.0,NNW,8.1,-,N/A,,Overcast,330,2013-10-23 08:10:00
3:54 AM,41.0,35.1,79,30.02,10.0,NW,6.9,-,N/A,,Overcast,310,2013-10-23 08:54:00
4:03 AM,41.0,35.6,81,30.02,10.0,WNW,8.1,-,N/A,,Overcast,300,2013-10-23 09:03:00
4:54 AM,39.9,34.0,79,30.03,10.0,NW,10.4,-,N/A,,Overcast,320,2013-10-23 09:54:00
5:54 AM,37.9,34.0,86,30.06,10.0,WNW,8.1,-,N/A,,Scattered Clouds,300,2013-10-23 10:54:00
6:54 AM,36.0,33.1,89,30.08,10.0,WNW,6.9,-,N/A,,Clear,300,2013-10-23 11:54:00
7:54 AM,37.0,33.1,86,30.11,10.0,WNW,6.9,-,N/A,,Clear,300,2013-10-23 12:54:00
8:54 AM,39.0,34.0,82,30.13,10.0,West,8.1,-,N/A,,Overcast,270,2013-10-23 13:54:00
9:54 AM,42.1,30.9,65,30.13,10.0,WNW,11.5,-,N/A,,Clear,290,2013-10-23 14:54:00
10:54 AM,44.1,28.0,53,30.14,10.0,West,10.4,19.6,N/A,,Mostly Cloudy,280,2013-10-23 15:54:00
11:54 AM,46.0,26.1,46,30.13,10.0,NW,10.4,-,N/A,,Partly Cloudy,310,2013-10-23 16:54:00
12:54 PM,46.9,27.0,46,30.12,10.0,NW,12.7,-,N/A,,Partly Cloudy,310,2013-10-23 17:54:00
1:54 PM,48.0,28.0,46,30.11,10.0,WNW,11.5,-,N/A,,Scattered Clouds,290,2013-10-23 18:54:00
2:54 PM,48.0,28.0,46,30.09,10.0,WNW,12.7,18.4,N/A,,Mostly Cloudy,290,2013-10-23 19:54:00
3:54 PM,48.9,27.0,43,30.09,10.0,West,11.5,-,N/A,,Partly Cloudy,270,2013-10-23 20:54:00
4:54 PM,46.9,27.0,46,30.08,10.0,WNW,9.2,-,N/A,,Overcast,300,2013-10-23 21:54:00
5:54 PM,46.0,30.0,54,30.09,10.0,WNW,9.2,-,0.00,Rain,Light Rain,290,2013-10-23 22:54:00
6:54 PM,41.0,34.0,76,30.12,10.0,West,13.8,-,0.01,Rain,Light Rain,260,2013-10-23 23:54:00
7:54 PM,39.9,36.0,86,30.14,10.0,West,8.1,-,0.00,,Overcast,280,2013-10-24 00:54:00
8:54 PM,39.9,37.0,89,30.14,10.0,WNW,6.9,-,0.00,,Overcast,290,2013-10-24 01:54:00
9:54 PM,39.9,36.0,86,30.15,10.0,WNW,6.9,-,N/A,,Overcast,290,2013-10-24 02:54:00
10:54 PM,39.9,36.0,86,30.14,10.0,NW,5.8,-,N/A,,Overcast,310,2013-10-24 03:54:00
11:54 PM,39.9,36.0,86,30.14,10.0,NNW,4.6,-,N/A,,Overcast,340,2013-10-24 04:54:00